Regional Weather Roundup
Issued by NWS

Home | Current Version | Previous Version | Graphics & Text | Print | Product List | Glossary On
Versions: 1 2 3 4 5 6 7 8 9 10 11 12 13 14 15 16 17 18 19 20 21 22 23 24 25 26 27 28 29 30 31 32 33 34 35 36 37 38 39 40 41 42 43 44 45 46 47 48 49 50
000
ASUS43 KMPX 300701
RWRMN
WEATHER ROUNDUP FOR MINNESOTA
NATIONAL WEATHER SERVICE TWIN CITIES/CHANHASSEN MN
200 AM CDT THU OCT 30 2014


NOTE: "FAIR" INDICATES FEW OR NO CLOUDS BELOW 12,000 FEET WITH NO
SIGNIFICANT WEATHER AND/OR OBSTRUCTIONS TO VISIBILITY. N/A MEANS
CURRENT SKY AND/OR WEATHER CONDITIONS ARE NOT AVAILABLE.

MNZ060>063-068>070-300800-
   Twin Cities Metro

CITY           SKY/WX    TMP DP  RH WIND       PRES   REMARKS
TWIN CITIES    CLOUDY    38  32  79 SE3       30.07F
ST PAUL        CLOUDY    37  34  89 SE5       30.09F
CRYSTAL        CLOUDY    39  33  79 CALM      30.06F
BLAINE         CLOUDY    39  37  93 CALM      30.06F
LAKEVILLE      MOCLDY    34  30  86 CALM      30.06F
EDEN PRAIRIE   CLOUDY    39  32  76 E5        30.05F
SOUTH ST PAUL  CLOUDY    37  33  86 CALM      30.07F
LAKE ELMO      CLOUDY    36  32  87 CALM      30.08F
$$
MNZ001>005-007-008-013>017-022>024-027-028-300800-
   Northwest Minnesota

CITY           SKY/WX    TMP DP  RH WIND       PRES   REMARKS
BEMIDJI        CLOUDY    33  31  90 SE3       30.02S
HALLOCK        MOCLDY    36  32  87 E6        30.03S
ROSEAU         CLOUDY    32  28  86 CALM      30.04S
WARROAD        CLOUDY    32  28  86 CALM      30.05S
THIEF RVR FALL CLOUDY    36  30  80 NE7       30.02S
CROOKSTON      CLOUDY    37  36  93 SE7       30.02R
FOSSTON        DRIZZLE   34  32  93 CALM      30.01S
DETROIT LAKES  MOCLDY    36  34  93 SE5       30.00F
MOORHEAD       CLOUDY    39  37  93 S9        30.00R
PARK RAPIDS    CLOUDY    33  30  88 S3        30.01S
MAHNOMEN       DRIZZLE   36  33  87 CALM      30.00R
$$
MNZ006-009>011-018-025>026-300800-
   North Central Minnesota

CITY           SKY/WX    TMP DP  RH WIND       PRES   REMARKS
BAUDETTE       CLOUDY    34  31  88 CALM      30.04R
FLAG ISLAND    LGT RAIN  36  32  87 NW7       30.03S
INTL FALLS     CLOUDY    34  33  96 CALM      30.03S
WASKISH        CLOUDY    34  32  93 CALM      30.05R
BIG FORK       MOCLDY    34  32  93 CALM      30.05R
LONGVILLE      CLOUDY    32  30  93 CALM      30.02S
GRAND RAPIDS   CLOUDY    36  30  80 CALM      30.03S
CRANE LAKE     CLOUDY    34  34 100 CALM      30.05S
ORR            CLOUDY    34  32  93 CALM      30.01S
COOK           RAIN      34  34 100 CALM      30.03F
WALKER         PTSUNNY   33  30  86 CALM      30.02R
$$
MNZ012-019>021-037-300800-
   Northeast Minnesota

CITY           SKY/WX    TMP DP  RH WIND       PRES   REMARKS
DULUTH         DRIZZLE   36  32  85 W5        30.03F
ELY            CLOUDY    34  34 100 W5        30.03R WCI  30
HIBBING        CLOUDY    36  32  85 CALM      30.04R
EVELETH        CLOUDY    34  34 100 CALM      30.04S
DULUTH HARBOR  CLOUDY    39  36  87 W5        30.07F
TWO HARBORS    CLOUDY    39 N/A N/A CALM      30.03S
SILVER BAY     CLOUDY    36  34  93 CALM      30.02F
GRAND MARAIS     N/A     41  35  79 CALM      30.03F
G MARAIS ARPRT CLOUDY    34  30  86 CALM      30.01S
$$
MNZ029>031-032-039>041-046>048-054>057-064-300800-
   West Central Minnesota

CITY           SKY/WX    TMP DP  RH WIND       PRES   REMARKS
FERGUS FALLS   CLOUDY    37  36  93 S9        30.02F
WHEATON        CLOUDY    36  34  93 SE9       30.02F
MORRIS         DRIZZLE   37  36  93 SE7       30.01S
ALEXANDRIA     CLOUDY    38  33  82 S3        30.03F
ELBOW LAKE     LGT RAIN  37  35  91 SE9       30.01S
WADENA         DRIZZLE   34  32  93 SE5       30.01S WCI  30
GLENWOOD       CLOUDY    37  34  87 SE6       30.03S
APPLETON       DRIZZLE   39  36  87 E9        30.01F
BENSON         MIX PCPN  37  36  93 SE6       30.03F
ORTONVILLE     DRIZZLE   37  36  93 E6        30.00S
MADISON        LGT RAIN  43  39  87 SE6       30.00F
WILLMAR        MOCLDY    39  34  81 SE6       30.05S
$$
MNZ033>034-036-042>043-049>051-058-059-300800-
   Central Minnesota

CITY           SKY/WX    TMP DP  RH WIND       PRES   REMARKS
ST CLOUD       CLOUDY    38  34  85 S5        30.05F
SAUK CENTRE    CLOUDY    36  33  88 SE3       30.04S
PAYNESVILLE    CLOUDY    35  31  88 E5        30.04F WCI  31
AITKIN         CLOUDY    36  30  80 CALM      30.03S
PINE RIVER     CLOUDY    34  32  93 S3        30.06S
BRAINERD       CLOUDY    35  32  88 S3        30.04F
STAPLES        CLOUDY    36  30  80 CALM      30.02F
LONG PRAIRIE   MIX PCPN  34  34 100 CALM      30.04S
LITTLE FALLS   CLOUDY    36  32  87 CALM      30.05S
LITCHFIELD     CLOUDY    37  36  93 CALM      30.05S
BUFFALO        CLOUDY    37  33  82 CALM      30.07S
MAPLE LAKE     CLOUDY    39  36  87 CALM      30.07S
$$
MNZ037-044-045-052-053-300800-
   East Central Minnesota

CITY           SKY/WX    TMP DP  RH WIND       PRES   REMARKS
PRINCETON      CLOUDY    37  34  87 CALM      30.06F
MORA           CLOUDY    36  32  87 CALM      30.08S
CAMBRIDGE      CLOUDY    39  30  70 E3        30.04F
RUSH CITY      CLOUDY    36  32  85 CALM      30.07F
MOOSE LAKE     CLOUDY    36  32  87 CALM      30.04S
HINCKLEY       CLOUDY    36  34  93 CALM      30.07S
CLOQUET        CLOUDY    36  34  93 CALM      30.04S
MCGREGOR       CLOUDY    34  32  93 CALM      30.04F
$$
MNZ071>073-080-081-089-090-097-098-300800-
   Southwest Minnesota

CITY           SKY/WX    TMP DP  RH WIND       PRES   REMARKS
MONTEVIDEO     RAIN      39  36  87 S6        30.03F
GRANITE FALLS  DRIZZLE   39  34  81 CALM      30.04F
CANBY          CLOUDY    40  37  91 SE5       30.01F
MARSHALL       CLOUDY    39  34  81 E7        30.00F
REDWOOD FALLS  CLOUDY    40  32  73 E3        30.03S
OLIVIA         CLOUDY    39  32  75 SE3       30.03S
PIPESTONE      CLOUDY    46  32  57 S5        29.98S
WINDOM         CLOUDY    43  34  70 CALM      30.02S
WORTHINGTON    CLOUDY    46  30  53 S8        30.01S
JACKSON        CLOUDY    43  32  65 S6        30.02S
TRACY          LGT RAIN  42  36  77 CALM      30.02R
SLAYTON        CLOUDY    44  32  61 CALM      30.01S
$$
MNZ065>067-074>077-082>085-091>093-300800-
   South Central Minnesota

CITY           SKY/WX    TMP DP  RH WIND       PRES   REMARKS
MANKATO        CLOUDY    39  30  70 S7        30.04F
NEW ULM        CLOUDY    39  32  75 CALM      30.04S
ST JAMES       CLOUDY    41  34  75 CALM      30.04S
FAIRMONT       CLOUDY    39  30  70 S6        30.04S
GLENCOE        CLOUDY    38  34  83 E5        30.04F
FARIBAULT      MOCLDY    37  34  87 SE5       30.06F
OWATONNA       MOCLDY    39  32  75 SE9       30.05F
WASECA         MOCLDY    36  30  80 SE5       30.06F
ALBERT LEA     PTCLDY    37  34  87 SE5       30.06F
$$
MNZ078>079-086>088-094>096-300800-
   Southeast Minnesota

CITY           SKY/WX    TMP DP  RH WIND       PRES   REMARKS
ROCHESTER      MOCLDY    35  32  88 S7        30.08F WCI  29
RED WING       CLOUDY    36  34  93 CALM      30.08F
STANTON        CLOUDY    37  32  81 CALM      30.06F
DODGE CENTER   CLOUDY    37  34  87 S7        30.07S
WINONA         CLOUDY    36  34  93 CALM      30.11F
AUSTIN         MOCLDY    36  32  87 SE3       30.07F
PRESTON        MOCLDY    33  31  92 S5        30.09F WCI  28
$$
ABBREVIATIONS USED IN REMARKS
   TC - TEMPERATURES IN CELSIUS
  WCI - WIND CHILL INDEX
   HX - HEAT INDEX
  VSB - VISIBILITY
$$



USA.gov is the U.S. government's official web portal to all federal, state and local government web resources and services.